星链-3219 (STARLINK-3219 )

导读 | 星芒AI

STARLINK-3219 是由 SpaceX 开发并发射的星链(Starlink)卫星之一,属于其低轨卫星互联网星座的一部分。该卫星旨在为全球用户提供高速、低延迟的互联网服务,尤其在偏远和网络基础设施薄弱的地区。它运行在约 550 公里的低地球轨道上,采用先进的通信技术,支持全球范围内的宽带连接。作为星链计划的组成部分,STARLINK-3219 有助于提升全球互联网覆盖能力,推动数字包容性发展。

基本信息
目录编号:
49724
目录名称:
STARLINK-3219
国际标识:
2021-115A
轨道中心:
EARTH
卫星名称:
星链-3219
卫星全名:
星链-3219 (STARLINK-3219 )
卫星状态:
在轨 (已飞行1479 天)
发射日期:
2021-12-02 UTC
国别 :
美国 (US)
星等 :
--
轨道信息
数据来源 国际轨道数据
星历时间: 2025-12-19T18:28:21+0800
20小时前
查看轨道信息
半长轴: 6917.892km
偏心率: 0.0001649
轨道倾角: 53.217°
近地点辐角 89.426°
升交点赤经 149.611°
平近点角 270.692°
近地点: 538.614km
远地点: 540.896km
周期: 95.438分钟
每日圈数: 15.088363
详细信息
固有亮度:
5
最大亮度:
2.5
卫星平台:
Starlink v1.5
覆盖范围:
全球
运营商:
太空探索技术公司
运营商所在国:
美国
制造商(研发单位):
太空探索技术公司
制造商所在国:
美国
使用方式:
暂无
卫星简介
星链(Starlink)计划是由太空探索技术公司(SpaceX)提出的一个巨型低轨卫星互联网星座项目,计划在2019年至2024年间在太空搭建由约1.2万颗卫星组成的“星链”网络,其中1584颗将部署在地球上空550千米处的近地轨道,并从2020年开始工作。该卫星仍在工作。
2D轨道图
3D轨道图
轨道高度分析图
轨道倾角分析图
轨道综合分析图
查看轨道综合分析图